QPF
0.17 0.11 0.07 0.06 0.04 0.02 0.02 0.02 0.02 0.03 0.05 0.06 0.05 0.04 0.05 0.06 0.05 0.04 0.02 0.03 0.03 0.04 0.06 0.10 0.13 0.11 0.09 0.07 0.06 0.05 0.06 0.06 0.06 0.07 0.06 0.05 0.04 0.03 0.01 0.02 0.01 0.02 0.02 0.01 0.01 0.01 0.01 0.00 0.00
0.08 0.09 0.08 0.08 0.03 0.01 0.03 0.03 0.02 0.02 0.04 0.07 0.05 0.05 0.05 0.05 0.03 0.01 0.01 0.02 0.03 0.05 0.07 0.07 0.09 0.09 0.08 0.06 0.05 0.05 0.05 0.05 0.05 0.05 0.05 0.04 0.05 0.03 0.02 0.01 0.01 0.01 0.01 0.01 0.01 0.01 0.01 0.01 0.01
0.08 0.14 0.13 0.07 0.02 0.01 0.03 0.02 0.02 0.03 0.05 0.06 0.05 0.04 0.05 0.04 0.02 0.01 0.01 0.01 0.02 0.04 0.04 0.05 0.09 0.09 0.08 0.06 0.05 0.03 0.03 0.04 0.03 0.03 0.03 0.04 0.04 0.04 0.04 0.03 0.03 0.03 0.02 0.02 0.01 0.01 0.01 0.01 0.01
0.09 0.18 0.12 0.05 0.02 0.02 0.02 0.02 0.02 0.03 0.05 0.05 0.04 0.02 0.02 0.02 0.01 0.01 0.00 0.01 0.02 0.02 0.03 0.06 0.09 0.08 0.08 0.08 0.07 0.04 0.03 0.03 0.03 0.03 0.03 0.04 0.05 0.06 0.05 0.05 0.06 0.07 0.05 0.04 0.03 0.02 0.01 0.02 0.01
0.12 0.12 0.07 0.03 0.03 0.03 0.02 0.01 0.01 0.04 0.06 0.08 0.05 0.03 0.01 0.01 0.01 0.01 0.02 0.02 0.02 0.03 0.03 0.04 0.06 0.05 0.05 0.05 0.05 0.05 0.03 0.02 0.02 0.02 0.02 0.04 0.05 0.05 0.05 0.06 0.07 0.09 0.07 0.06 0.05 0.04 0.03 0.03 0.02
0.13 0.08 0.04 0.03 0.03 0.03 0.04 0.02 0.02 0.03 0.04 0.08 0.06 0.03 0.02 0.02 0.02 0.03 0.03 0.03 0.03 0.03 0.05 0.05 0.04 0.04 0.03 0.03 0.02 0.02 0.02 0.03 0.03 0.03 0.03 0.04 0.04 0.05 0.07 0.08 0.09 0.09 0.09 0.07 0.06 0.05 0.04 0.04 0.04
0.15 0.07 0.03 0.02 0.03 0.03 0.03 0.02 0.02 0.02 0.03 0.04 0.04 0.03 0.02 0.03 0.04 0.04 0.04 0.04 0.02 0.02 0.05 0.05 0.03 0.02 0.02 0.02 0.01 0.01 0.02 0.02 0.03 0.03 0.03 0.03 0.05 0.06 0.07 0.08 0.09 0.10 0.12 0.11 0.08 0.07 0.07 0.06 0.06
0.14 0.09 0.04 0.02 0.02 0.03 0.03 0.02 0.02 0.02 0.04 0.06 0.03 0.03 0.03 0.03 0.05 0.05 0.06 0.05 0.04 0.03 0.04 0.03 0.01 0.01 0.01 0.01 0.01 0.01 0.01 0.01 0.01 0.02 0.02 0.03 0.04 0.05 0.05 0.06 0.07 0.08 0.10 0.12 0.10 0.09 0.09 0.07 0.06
0.15 0.10 0.06 0.03 0.02 0.03 0.02 0.03 0.03 0.03 0.04 0.04 0.03 0.03 0.03 0.03 0.04 0.04 0.03 0.03 0.02 0.01 0.01 0.01 0.00 0.00 0.00 0.00 0.00 0.01 0.01 0.01 0.01 0.01 0.02 0.02 0.01 0.01 0.02 0.02 0.04 0.06 0.08 0.10 0.12 0.12 0.10 0.08 0.07
0.09 0.07 0.06 0.03 0.03 0.02 0.02 0.03 0.04 0.03 0.04 0.04 0.02 0.02 0.02 0.03 0.05 0.04 0.02 0.01 0.01 0.01 0.00 0.00 0.00 0.00 0.00 0.00 0.00 0.00 0.00 0.00 0.00 0.00 0.00 0.01 0.01 0.01 0.01 0.01 0.03 0.06 0.07 0.08 0.12 0.14 0.14 0.09 0.05
0.07 0.09 0.07 0.03 0.02 0.02 0.02 0.03 0.02 0.03 0.04 0.03 0.02 0.02 0.03 0.03 0.03 0.03 0.01 0.00 0.00 0.00 0.00 0.00 0.00 0.00 0.00 0.00 0.00 0.00 0.00 0.00 0.00 0.00 0.00 0.00 0.01 0.00 0.01 0.01 0.01 0.01 0.02 0.03 0.05 0.09 0.09 0.07 0.05
0.08 0.09 0.08 0.06 0.03 0.03 0.03 0.03 0.04 0.03 0.03 0.02 0.02 0.01 0.03 0.04 0.02 0.01 0.00 0.00 0.00 0.00 0.00 0.00 0.00 0.00 0.00 0.00 0.00 0.00 0.00 0.00 0.00 0.00 0.00 0.00 0.00 0.01 0.00 0.00 0.00 0.00 0.00 0.00 0.01 0.02 0.05 0.05 0.05
0.08 0.09 0.07 0.06 0.06 0.06 0.03 0.03 0.03 0.02 0.02 0.03 0.02 0.02 0.05 0.04 0.01 0.00 0.00 0.00 0.00 0.00 0.00 0.00 0.00 0.00 0.00 0.00 0.00 0.00 0.00 0.00 0.00 0.00 0.00 0.00 0.00 0.00 0.01 0.01 0.01 0.00 0.00 0.00 0.00 0.01 0.02 0.03 0.04
0.06 0.07 0.07 0.07 0.08 0.06 0.06 0.05 0.02 0.01 0.02 0.02 0.01 0.03 0.05 0.01 0.00 0.00 0.00 0.00 0.00 0.00 0.00 0.00 0.00 0.00 0.00 0.00 0.00 0.00 0.00 0.00 0.00 0.00 0.00 0.00 0.00 0.00 0.00 0.01 0.01 0.00 0.00 0.00 0.00 0.01 0.01 0.02 0.02
0.07 0.08 0.06 0.05 0.07 0.05 0.05 0.05 0.03 0.02 0.02 0.02 0.02 0.03 0.04 0.01 0.00 0.00 0.00 0.00 0.00 0.00 0.00 0.00 0.00 0.00 0.00 0.00 0.00 0.00 0.00 0.00 0.00 0.00 0.00 0.00 0.00 0.00 0.00 0.00 0.01 0.01 0.00 0.00 0.00 0.00 0.01 0.02 0.02
0.07 0.06 0.06 0.05 0.03 0.04 0.04 0.03 0.03 0.02 0.04 0.04 0.03 0.03 0.03 0.01 0.01 0.00 0.00 0.00 0.00 0.00 0.00 0.00 0.00 0.00 0.00 0.00 0.00 0.00 0.00 0.00 0.00 0.00 0.00 0.00 0.00 0.00 0.00 0.00 0.00 0.00 0.00 0.00 0.00 0.00 0.00 0.01 0.02
0.06 0.04 0.03 0.03 0.03 0.04 0.03 0.01 0.02 0.02 0.04 0.05 0.03 0.03 0.02 0.01 0.01 0.00 0.00 0.00 0.00 0.00 0.00 0.00 0.00 0.00 0.00 0.00 0.00 0.00 0.00 0.00 0.00 0.00 0.00 0.00 0.00 0.00 0.00 0.00 0.00 0.00 0.00 0.00 0.00 0.01 0.00 0.01 0.02
0.03 0.04 0.02 0.01 0.02 0.04 0.02 0.01 0.01 0.02 0.02 0.03 0.02 0.01 0.01 0.00 0.00 0.00 0.00 0.00 0.00 0.00 0.00 0.00 0.00 0.00 0.00 0.00 0.00 0.00 0.00 0.00 0.00 0.00 0.00 0.00 0.00 0.00 0.00 0.00 0.00 0.00 0.00 0.00 0.00 0.00 0.01 0.01 0.01
0.02 0.02 0.02 0.01 0.01 0.01 0.01 0.01 0.01 0.01 0.01 0.01 0.00 0.00 0.00 0.01 0.00 0.00 0.00 0.00 0.00 0.00 0.00 0.00 0.00 0.00 0.00 0.00 0.00 0.00 0.00 0.00 0.00 0.00 0.00 0.00 0.00 0.00 0.00 0.00 0.00 0.00 0.00 0.00 0.01 0.01 0.01 0.01 0.01
0.02 0.02 0.01 0.01 0.01 0.00 0.00 0.00 0.00 0.00 0.00 0.00 0.00 0.00 0.00 0.00 0.01 0.00 0.00 0.00 0.00 0.00 0.00 0.00 0.00 0.00 0.00 0.00 0.00 0.00 0.00 0.00 0.00 0.00 0.00 0.00 0.00 0.00 0.00 0.00 0.01 0.01 0.00 0.01 0.01 0.01 0.01 0.01 0.01
0.02 0.01 0.01 0.01 0.01 0.00 0.00 0.00 0.00 0.00 0.00 0.00 0.00 0.00 0.00 0.00 0.00 0.00 0.00 0.00 0.00 0.00 0.00 0.00 0.00 0.00 0.00 0.00 0.00 0.00 0.00 0.00 0.00 0.00 0.00 0.00 0.00 0.00 0.00 0.00 0.01 0.01 0.01 0.00 0.01 0.01 0.01 0.01 0.01
0.01 0.01 0.01 0.01 0.00 0.00 0.00 0.00 0.00 0.00 0.00 0.00 0.00 0.00 0.00 0.00 0.00 0.00 0.00 0.00 0.00 0.00 0.00 0.00 0.00 0.00 0.00 0.00 0.00 0.00 0.00 0.00 0.00 0.00 0.00 0.00 0.00 0.00 0.00 0.00 0.01 0.00 0.00 0.01 0.01 0.01 0.00 0.00 0.01
0.00 0.01 0.01 0.01 0.01 0.00 0.00 0.00 0.00 0.00 0.00 0.00 0.00 0.00 0.00 0.00 0.00 0.00 0.00 0.00 0.00 0.00 0.00 0.00 0.00 0.00 0.00 0.00 0.00 0.00 0.00 0.00 0.00 0.00 0.00 0.00 0.00 0.00 0.00 0.00 0.00 0.00 0.00 0.01 0.01 0.01 0.00 0.00 0.01
0.00 0.00 0.00 0.00 0.00 0.00 0.00 0.00 0.00 0.00 0.00 0.00 0.00 0.00 0.00 0.00 0.00 0.00 0.00 0.00 0.00 0.00 0.00 0.00 0.00 0.00 0.00 0.00 0.00 0.00 0.00 0.00 0.00 0.00 0.00 0.00 0.00 0.00 0.00 0.00 0.00 0.00 0.00 0.01 0.01 0.01 0.01 0.01 0.01
0.01 0.00 0.00 0.00 0.00 0.00 0.00 0.00 0.00 0.00 0.00 0.00 0.00 0.00 0.00 0.00 0.00 0.00 0.00 0.00 0.00 0.00 0.00 0.00 0.00 0.00 0.00 0.00 0.00 0.00 0.00 0.00 0.00 0.00 0.00 0.00 0.01 0.01 0.01 0.00 0.00 0.00 0.01 0.01 0.01 0.01 0.01 0.02 0.02
0.00 0.00 0.00 0.00 0.00 0.00 0.00 0.00 0.00 0.00 0.00 0.00 0.00 0.00 0.00 0.00 0.00 0.00 0.00 0.00 0.00 0.00 0.00 0.00 0.00 0.00 0.00 0.00 0.00 0.00 0.00 0.00 0.00 0.00 0.00 0.00 0.01 0.01 0.00 0.00 0.01 0.01 0.01 0.01 0.01 0.01 0.01 0.02 0.02
0.00 0.00 0.00 0.00 0.00 0.00 0.00 0.00 0.00 0.00 0.00 0.00 0.00 0.00 0.00 0.00 0.00 0.00 0.00 0.00 0.00 0.00 0.00 0.00 0.00 0.00 0.00 0.00 0.00 0.00 0.00 0.00 0.00 0.00 0.01 0.00 0.01 0.00 0.00 0.00 0.01 0.02 0.01 0.01 0.01 0.01 0.01 0.01 0.01
0.00 0.00 0.00 0.00 0.00 0.00 0.00 0.00 0.00 0.00 0.00 0.00 0.00 0.00 0.00 0.00 0.00 0.00 0.00 0.00 0.00 0.00 0.00 0.00 0.00 0.00 0.00 0.00 0.00 0.00 0.00 0.00 0.00 0.00 0.00 0.00 0.00 0.00 0.00 0.00 0.01 0.01 0.01 0.01 0.01 0.01 0.00 0.01 0.01
0.00 0.00 0.00 0.00 0.00 0.00 0.00 0.00 0.00 0.00 0.00 0.00 0.00 0.00 0.00 0.00 0.00 0.00 0.00 0.00 0.00 0.00 0.00 0.00 0.00 0.00 0.00 0.00 0.00 0.00 0.00 0.00 0.00 0.00 0.00 0.00 0.00 0.00 0.00 0.00 0.00 0.00 0.01 0.00 0.00 0.00 0.00 0.01 0.01
0.00 0.00 0.00 0.00 0.00 0.00 0.00 0.00 0.00 0.00 0.00 0.00 0.00 0.00 0.00 0.00 0.00 0.00 0.00 0.00 0.00 0.00 0.00 0.00 0.00 0.00 0.00 0.00 0.00 0.00 0.00 0.00 0.00 0.00 0.00 0.00 0.00 0.00 0.00 0.00 0.00 0.00 0.00 0.00 0.00 0.00 0.00 0.00 0.01
MSLP
1010.35 1011.11 1012.05 1013.04 1013.94 1014.64 1015.08 1015.23 1015.16 1014.94 1014.69 1014.49 1014.38 1014.36 1014.38 1014.38 1014.28 1014.04 1013.66 1013.18 1012.67 1012.20 1011.84 1011.65 1011.61 1011.70 1011.86 1012.03 1012.17 1012.24 1012.27 1012.26 1012.26 1012.29 1012.37 1012.50 1012.64 1012.79 1012.90 1012.95 1012.95 1012.90 1012.83 1012.75 1012.68 1012.64 1012.62 1012.62 1012.61
1010.77 1011.69 1012.71 1013.68 1014.48 1015.01 1015.23 1015.17 1014.89 1014.52 1014.17 1013.92 1013.81 1013.80 1013.86 1013.90 1013.84 1013.65 1013.32 1012.90 1012.46 1012.07 1011.80 1011.67 1011.70 1011.83 1012.01 1012.20 1012.34 1012.43 1012.47 1012.48 1012.50 1012.54 1012.62 1012.73 1012.85 1012.95 1013.01 1013.02 1012.99 1012.92 1012.84 1012.77 1012.72 1012.69 1012.68 1012.67 1012.66
1011.32 1012.33 1013.37 1014.27 1014.92 1015.25 1015.26 1014.99 1014.55 1014.07 1013.65 1013.38 1013.28 1013.30 1013.39 1013.45 1013.43 1013.27 1012.99 1012.64 1012.28 1011.98 1011.79 1011.75 1011.83 1012.01 1012.21 1012.41 1012.55 1012.64 1012.67 1012.69 1012.70 1012.74 1012.80 1012.88 1012.95 1013.00 1013.01 1012.98 1012.91 1012.83 1012.76 1012.70 1012.67 1012.66 1012.67 1012.67 1012.66
1011.96 1013.01 1013.99 1014.77 1015.24 1015.37 1015.17 1014.74 1014.18 1013.64 1013.21 1012.96 1012.88 1012.94 1013.05 1013.13 1013.12 1012.99 1012.76 1012.47 1012.18 1011.97 1011.88 1011.91 1012.05 1012.25 1012.47 1012.65 1012.77 1012.83 1012.85 1012.84 1012.84 1012.86 1012.89 1012.93 1012.96 1012.96 1012.92 1012.85 1012.77 1012.68 1012.61 1012.58 1012.57 1012.59 1012.61 1012.63 1012.63
1012.64 1013.65 1014.52 1015.13 1015.40 1015.34 1014.98 1014.44 1013.83 1013.29 1012.90 1012.70 1012.67 1012.77 1012.90 1012.99 1012.99 1012.87 1012.67 1012.43 1012.22 1012.09 1012.07 1012.16 1012.34 1012.55 1012.75 1012.89 1012.97 1012.99 1012.97 1012.94 1012.91 1012.90 1012.91 1012.92 1012.91 1012.88 1012.81 1012.71 1012.60 1012.52 1012.46 1012.44 1012.45 1012.49 1012.54 1012.57 1012.58
1013.28 1014.20 1014.90 1015.32 1015.40 1015.16 1014.70 1014.10 1013.51 1013.02 1012.72 1012.60 1012.65 1012.79 1012.94 1013.03 1013.02 1012.91 1012.73 1012.54 1012.38 1012.31 1012.35 1012.47 1012.66 1012.85 1013.01 1013.11 1013.13 1013.10 1013.03 1012.97 1012.92 1012.90 1012.90 1012.89 1012.86 1012.81 1012.72 1012.60 1012.49 1012.40 1012.34 1012.33 1012.36 1012.41 1012.46 1012.51 1012.53
1013.81 1014.57 1015.08 1015.29 1015.20 1014.84 1014.31 1013.73 1013.20 1012.82 1012.63 1012.63 1012.76 1012.94 1013.11 1013.20 1013.18 1013.07 1012.90 1012.73 1012.62 1012.59 1012.66 1012.80 1012.97 1013.13 1013.23 1013.26 1013.22 1013.14 1013.04 1012.96 1012.90 1012.89 1012.89 1012.89 1012.87 1012.81 1012.71 1012.59 1012.46 1012.36 1012.30 1012.28 1012.31 1012.36 1012.41 1012.45 1012.48
1014.16 1014.74 1015.05 1015.07 1014.82 1014.38 1013.84 1013.31 1012.89 1012.65 1012.60 1012.70 1012.91 1013.14 1013.33 1013.41 1013.38 1013.26 1013.10 1012.96 1012.87 1012.86 1012.94 1013.08 1013.22 1013.33 1013.38 1013.35 1013.26 1013.14 1013.02 1012.93 1012.90 1012.90 1012.93 1012.96 1012.95 1012.90 1012.80 1012.67 1012.54 1012.42 1012.33 1012.30 1012.30 1012.33 1012.37 1012.40 1012.43
1014.31 1014.70 1014.82 1014.67 1014.32 1013.83 1013.32 1012.87 1012.58 1012.48 1012.55 1012.76 1013.04 1013.30 1013.49 1013.57 1013.53 1013.41 1013.26 1013.13 1013.06 1013.07 1013.15 1013.27 1013.39 1013.45 1013.45 1013.38 1013.26 1013.12 1013.00 1012.93 1012.93 1012.97 1013.04 1013.10 1013.12 1013.08 1012.99 1012.85 1012.69 1012.54 1012.43 1012.35 1012.32 1012.32 1012.34 1012.36 1012.37
1014.30 1014.51 1014.46 1014.19 1013.76 1013.27 1012.80 1012.45 1012.28 1012.29 1012.47 1012.76 1013.08 1013.36 1013.55 1013.62 1013.58 1013.46 1013.32 1013.21 1013.16 1013.18 1013.27 1013.38 1013.47 1013.51 1013.48 1013.38 1013.25 1013.12 1013.02 1012.98 1013.01 1013.10 1013.21 1013.30 1013.34 1013.32 1013.23 1013.07 1012.89 1012.71 1012.55 1012.44 1012.36 1012.33 1012.31 1012.31 1012.31
1014.18 1014.25 1014.08 1013.72 1013.25 1012.77 1012.37 1012.10 1012.02 1012.12 1012.36 1012.68 1013.02 1013.29 1013.47 1013.52 1013.48 1013.37 1013.26 1013.17 1013.15 1013.19 1013.29 1013.40 1013.48 1013.52 1013.48 1013.40 1013.28 1013.17 1013.10 1013.10 1013.16 1013.27 1013.41 1013.52 1013.58 1013.56 1013.46 1013.30 1013.09 1012.88 1012.68 1012.52 1012.41 1012.33 1012.29 1012.26 1012.25
1014.06 1014.02 1013.76 1013.36 1012.89 1012.44 1012.08 1011.87 1011.84 1011.98 1012.23 1012.55 1012.86 1013.11 1013.26 1013.30 1013.26 1013.18 1013.09 1013.04 1013.05 1013.12 1013.23 1013.36 1013.46 1013.51 1013.51 1013.45 1013.36 1013.29 1013.25 1013.27 1013.35 1013.47 1013.61 1013.72 1013.78 1013.76 1013.66 1013.48 1013.26 1013.02 1012.80 1012.60 1012.45 1012.34 1012.28 1012.23 1012.20
1014.02 1013.91 1013.61 1013.19 1012.73 1012.31 1011.98 1011.80 1011.78 1011.90 1012.12 1012.39 1012.65 1012.85 1012.97 1013.01 1012.97 1012.91 1012.86 1012.84 1012.89 1012.99 1013.13 1013.29 1013.43 1013.52 1013.56 1013.55 1013.51 1013.47 1013.45 1013.48 1013.56 1013.67 1013.78 1013.88 1013.92 1013.90 1013.79 1013.61 1013.39 1013.14 1012.89 1012.68 1012.50 1012.37 1012.28 1012.22 1012.19
1014.13 1013.98 1013.66 1013.25 1012.81 1012.41 1012.10 1011.91 1011.86 1011.92 1012.07 1012.25 1012.44 1012.58 1012.66 1012.68 1012.66 1012.63 1012.61 1012.63 1012.71 1012.85 1013.02 1013.22 1013.40 1013.55 1013.65 1013.69 1013.70 1013.70 1013.70 1013.72 1013.77 1013.84 1013.91 1013.98 1014.00 1013.96 1013.86 1013.69 1013.48 1013.24 1012.99 1012.77 1012.57 1012.42 1012.31 1012.24 1012.20
1014.39 1014.22 1013.91 1013.52 1013.10 1012.72 1012.40 1012.18 1012.06 1012.04 1012.08 1012.17 1012.26 1012.34 1012.38 1012.40 1012.39 1012.38 1012.39 1012.44 1012.54 1012.70 1012.91 1013.14 1013.37 1013.58 1013.74 1013.85 1013.91 1013.94 1013.95 1013.95 1013.96 1013.98 1014.00 1014.02 1014.02 1013.98 1013.89 1013.75 1013.56 1013.34 1013.11 1012.88 1012.68 1012.51 1012.38 1012.30 1012.24
1014.77 1014.59 1014.30 1013.94 1013.55 1013.17 1012.84 1012.56 1012.36 1012.23 1012.16 1012.13 1012.14 1012.15 1012.16 1012.16 1012.16 1012.17 1012.20 1012.27 1012.39 1012.56 1012.79 1013.05 1013.32 1013.58 1013.81 1013.99 1014.10 1014.16 1014.17 1014.15 1014.12 1014.08 1014.06 1014.04 1014.02 1013.98 1013.91 1013.81 1013.66 1013.47 1013.26 1013.04 1012.82 1012.64 1012.49 1012.38 1012.31
1015.19 1015.03 1014.77 1014.44 1014.09 1013.72 1013.36 1013.03 1012.73 1012.48 1012.29 1012.15 1012.06 1012.01 1011.99 1011.99 1011.99 1012.02 1012.06 1012.13 1012.25 1012.42 1012.65 1012.92 1013.23 1013.54 1013.82 1014.06 1014.23 1014.32 1014.34 1014.30 1014.24 1014.16 1014.10 1014.05 1014.02 1014.00 1013.96 1013.90 1013.80 1013.65 1013.46 1013.24 1013.01 1012.80 1012.62 1012.49 1012.40
1015.57 1015.44 1015.23 1014.97 1014.66 1014.30 1013.92 1013.53 1013.14 1012.78 1012.46 1012.21 1012.03 1011.91 1011.86 1011.84 1011.85 1011.88 1011.92 1011.99 1012.09 1012.25 1012.47 1012.75 1013.07 1013.42 1013.76 1014.05 1014.27 1014.40 1014.45 1014.41 1014.33 1014.23 1014.13 1014.07 1014.05 1014.04 1014.05 1014.04 1013.98 1013.87 1013.69 1013.48 1013.23 1012.99 1012.78 1012.62 1012.51
1015.85 1015.78 1015.66 1015.48 1015.23 1014.91 1014.52 1014.07 1013.58 1013.10 1012.66 1012.29 1012.01 1011.82 1011.72 1011.69 1011.69 1011.73 1011.77 1011.83 1011.91 1012.05 1012.25 1012.52 1012.86 1013.23 1013.62 1013.96 1014.23 1014.41 1014.48 1014.46 1014.38 1014.28 1014.18 1014.12 1014.10 1014.13 1014.17 1014.20 1014.18 1014.10 1013.95 1013.73 1013.47 1013.19 1012.95 1012.75 1012.62
1016.00 1016.04 1016.03 1015.97 1015.81 1015.54 1015.15 1014.65 1014.07 1013.46 1012.88 1012.38 1011.98 1011.71 1011.56 1011.50 1011.49 1011.52 1011.57 1011.62 1011.69 1011.81 1011.99 1012.25 1012.59 1012.99 1013.40 1013.79 1014.12 1014.35 1014.46 1014.47 1014.41 1014.31 1014.22 1014.17 1014.17 1014.22 1014.29 1014.35 1014.37 1014.32 1014.18 1013.96 1013.69 1013.39 1013.12 1012.89 1012.75
1016.04 1016.22 1016.38 1016.46 1016.42 1016.23 1015.85 1015.30 1014.62 1013.87 1013.14 1012.48 1011.95 1011.57 1011.34 1011.24 1011.22 1011.25 1011.30 1011.36 1011.43 1011.54 1011.71 1011.96 1012.30 1012.71 1013.15 1013.58 1013.95 1014.22 1014.38 1014.44 1014.40 1014.33 1014.25 1014.21 1014.22 1014.28 1014.38 1014.47 1014.52 1014.49 1014.37 1014.16 1013.88 1013.58 1013.29 1013.05 1012.89
1016.00 1016.36 1016.72 1016.98 1017.09 1016.98 1016.62 1016.02 1015.23 1014.33 1013.42 1012.59 1011.90 1011.40 1011.08 1010.92 1010.88 1010.92 1010.98 1011.05 1011.13 1011.25 1011.42 1011.66 1012.00 1012.41 1012.87 1013.33 1013.74 1014.06 1014.26 1014.35 1014.35 1014.30 1014.24 1014.21 1014.23 1014.30 1014.41 1014.51 1014.58 1014.58 1014.48 1014.29 1014.03 1013.74 1013.45 1013.21 1013.04
1015.95 1016.52 1017.08 1017.55 1017.80 1017.78 1017.45 1016.80 1015.90 1014.84 1013.75 1012.73 1011.86 1011.21 1010.79 1010.56 1010.50 1010.53 1010.61 1010.71 1010.82 1010.95 1011.12 1011.37 1011.71 1012.12 1012.59 1013.06 1013.49 1013.85 1014.10 1014.23 1014.26 1014.23 1014.18 1014.15 1014.17 1014.24 1014.35 1014.46 1014.55 1014.57 1014.51 1014.36 1014.14 1013.87 1013.60 1013.38 1013.21
1015.92 1016.71 1017.49 1018.14 1018.54 1018.61 1018.29 1017.59 1016.59 1015.37 1014.10 1012.88 1011.84 1011.04 1010.51 1010.21 1010.11 1010.14 1010.24 1010.37 1010.50 1010.65 1010.84 1011.09 1011.42 1011.83 1012.29 1012.77 1013.22 1013.60 1013.88 1014.04 1014.10 1014.09 1014.06 1014.03 1014.04 1014.10 1014.20 1014.32 1014.43 1014.49 1014.47 1014.37 1014.20 1013.98 1013.75 1013.54 1013.39
1015.97 1016.93 1017.90 1018.71 1019.24 1019.38 1019.08 1018.34 1017.24 1015.89 1014.45 1013.07 1011.87 1010.94 1010.29 1009.92 1009.78 1009.80 1009.91 1010.06 1010.21 1010.38 1010.57 1010.81 1011.13 1011.51 1011.96 1012.43 1012.89 1013.29 1013.59 1013.79 1013.88 1013.89 1013.87 1013.84 1013.84 1013.89 1013.99 1014.11 1014.24 1014.33 1014.36 1014.32 1014.22 1014.06 1013.88 1013.70 1013.56
1016.07 1017.18 1018.28 1019.21 1019.84 1020.03 1019.74 1018.97 1017.80 1016.36 1014.80 1013.30 1011.98 1010.93 1010.20 1009.76 1009.58 1009.58 1009.68 1009.82 1009.98 1010.14 1010.31 1010.53 1010.81 1011.17 1011.59 1012.05 1012.50 1012.91 1013.24 1013.46 1013.59 1013.63 1013.62 1013.60 1013.60 1013.65 1013.74 1013.86 1014.00 1014.13 1014.21 1014.23 1014.19 1014.10 1013.97 1013.84 1013.72
1016.24 1017.42 1018.59 1019.59 1020.26 1020.48 1020.20 1019.43 1018.24 1016.76 1015.15 1013.59 1012.21 1011.09 1010.30 1009.81 1009.58 1009.53 1009.60 1009.71 1009.83 1009.95 1010.08 1010.25 1010.48 1010.78 1011.16 1011.59 1012.04 1012.45 1012.80 1013.07 1013.23 1013.31 1013.33 1013.33 1013.34 1013.38 1013.47 1013.61 1013.76 1013.91 1014.04 1014.12 1014.14 1014.10 1014.03 1013.93 1013.83
1016.44 1017.62 1018.80 1019.80 1020.47 1020.71 1020.45 1019.70 1018.54 1017.09 1015.51 1013.96 1012.58 1011.45 1010.63 1010.10 1009.82 1009.71 1009.71 1009.75 1009.80 1009.84 1009.89 1009.98 1010.13 1010.37 1010.69 1011.08 1011.51 1011.93 1012.30 1012.60 1012.80 1012.93 1013.00 1013.03 1013.06 1013.12 1013.22 1013.36 1013.52 1013.70 1013.85 1013.97 1014.04 1014.06 1014.03 1013.96 1013.88
1016.66 1017.79 1018.90 1019.85 1020.49 1020.72 1020.49 1019.80 1018.73 1017.37 1015.89 1014.44 1013.13 1012.04 1011.23 1010.67 1010.34 1010.15 1010.06 1009.99 1009.92 1009.85 1009.79 1009.76 1009.81 1009.96 1010.21 1010.54 1010.93 1011.34 1011.73 1012.07 1012.32 1012.51 1012.62 1012.71 1012.77 1012.86 1012.97 1013.12 1013.30 1013.48 1013.66 1013.80 1013.90 1013.96 1013.96 1013.93 1013.87
1016.91 1017.93 1018.93 1019.78 1020.36 1020.58 1020.39 1019.78 1018.84 1017.64 1016.33 1015.03 1013.84 1012.85 1012.07 1011.51 1011.12 1010.85 1010.63 1010.43 1010.22 1010.00 1009.80 1009.64 1009.57 1009.60 1009.75 1010.02 1010.36 1010.75 1011.13 1011.49 1011.79 1012.03 1012.20 1012.34 1012.45 1012.57 1012.71 1012.87 1013.06 1013.25 1013.43 1013.59 1013.71 1013.79 1013.82 1013.81 1013.79
Thickness
5778 5777 5774 5763 5745 5731 5729 5738 5745 5746 5750 5758 5761 5759 5752 5748 5745 5743 5762 5771 5771 5769 5768 5766 5764 5762 5760 5758 5757 5756 5754 5753 5751 5750 5750 5749 5748 5748 5748 5747 5747 5748 5748 5749 5749 5750 5752 5753 5754
5776 5774 5765 5751 5733 5720 5728 5741 5743 5749 5757 5761 5761 5758 5752 5750 5757 5758 5763 5768 5769 5767 5765 5763 5761 5759 5757 5755 5754 5753 5751 5749 5748 5747 5746 5745 5745 5744 5744 5744 5744 5744 5745 5745 5746 5747 5748 5749 5751
5774 5770 5753 5740 5729 5723 5732 5746 5748 5756 5762 5761 5756 5756 5753 5751 5757 5760 5765 5767 5766 5764 5762 5760 5758 5756 5754 5752 5751 5749 5748 5746 5745 5744 5743 5742 5741 5740 5740 5740 5740 5741 5741 5741 5742 5743 5744 5746 5747
5766 5755 5746 5733 5729 5737 5743 5749 5752 5753 5758 5761 5756 5749 5753 5760 5761 5763 5766 5765 5762 5760 5758 5757 5755 5753 5751 5749 5748 5746 5744 5743 5742 5741 5740 5739 5737 5737 5736 5736 5737 5737 5737 5737 5738 5739 5740 5742 5743
5759 5744 5732 5726 5732 5743 5750 5754 5755 5751 5752 5755 5753 5746 5748 5759 5764 5764 5763 5762 5758 5756 5756 5754 5752 5750 5748 5746 5745 5743 5742 5740 5739 5737 5736 5735 5734 5733 5733 5733 5733 5733 5733 5733 5734 5735 5736 5738 5739
5744 5736 5722 5719 5731 5744 5751 5756 5754 5751 5751 5753 5751 5744 5746 5758 5759 5759 5760 5758 5757 5754 5753 5750 5748 5747 5745 5744 5742 5740 5739 5737 5735 5734 5733 5732 5731 5730 5730 5730 5730 5730 5730 5730 5730 5731 5732 5734 5735
5736 5727 5722 5726 5729 5738 5750 5756 5752 5749 5748 5751 5753 5742 5745 5752 5757 5758 5757 5755 5753 5751 5749 5747 5745 5744 5743 5741 5739 5737 5736 5734 5732 5731 5730 5729 5728 5727 5726 5726 5726 5726 5726 5726 5727 5728 5728 5730 5731
5740 5728 5723 5724 5728 5736 5751 5755 5757 5752 5750 5758 5756 5742 5741 5752 5756 5755 5752 5750 5749 5747 5746 5744 5742 5741 5739 5737 5736 5734 5733 5731 5729 5727 5726 5725 5724 5723 5722 5722 5722 5723 5723 5723 5723 5724 5725 5725 5727
5741 5721 5716 5725 5729 5738 5750 5750 5755 5759 5754 5755 5755 5753 5755 5757 5754 5749 5745 5744 5743 5744 5743 5742 5740 5738 5736 5734 5732 5731 5730 5728 5726 5724 5722 5721 5720 5719 5718 5717 5718 5718 5719 5719 5719 5720 5721 5721 5722
5731 5716 5724 5736 5740 5743 5748 5749 5751 5750 5746 5747 5750 5754 5757 5753 5749 5744 5741 5739 5739 5739 5740 5740 5738 5736 5734 5732 5730 5728 5726 5724 5722 5720 5718 5716 5715 5714 5713 5713 5713 5713 5714 5714 5715 5716 5716 5717 5718
5730 5722 5730 5739 5746 5748 5747 5748 5752 5745 5739 5745 5747 5749 5750 5748 5745 5742 5741 5740 5740 5740 5739 5738 5736 5734 5732 5729 5727 5725 5723 5721 5718 5716 5715 5713 5711 5709 5708 5708 5708 5708 5708 5708 5709 5710 5711 5712 5713
5726 5730 5735 5738 5747 5747 5745 5747 5745 5746 5749 5758 5756 5754 5750 5745 5742 5741 5740 5740 5740 5738 5737 5737 5735 5732 5730 5727 5725 5722 5720 5717 5715 5713 5711 5709 5706 5704 5703 5702 5702 5702 5702 5702 5703 5704 5706 5707 5708
5723 5727 5735 5740 5744 5745 5746 5745 5745 5748 5757 5758 5755 5750 5747 5744 5743 5743 5742 5741 5739 5737 5736 5735 5733 5730 5728 5725 5722 5720 5717 5715 5712 5710 5708 5706 5703 5700 5698 5697 5697 5696 5696 5696 5697 5698 5700 5701 5703
5723 5726 5731 5736 5738 5742 5741 5742 5744 5749 5755 5753 5749 5746 5744 5743 5742 5741 5739 5738 5737 5737 5736 5734 5731 5729 5726 5723 5720 5717 5714 5712 5710 5707 5705 5702 5699 5697 5694 5693 5692 5691 5691 5691 5692 5693 5694 5695 5697
5724 5720 5724 5729 5734 5738 5738 5732 5740 5751 5752 5747 5745 5744 5742 5742 5742 5741 5741 5739 5738 5736 5735 5732 5730 5727 5724 5721 5718 5715 5712 5709 5707 5704 5702 5699 5696 5693 5691 5688 5687 5686 5686 5686 5686 5687 5688 5690 5692
5716 5710 5705 5721 5730 5735 5730 5720 5741 5749 5746 5742 5741 5740 5740 5740 5741 5742 5742 5740 5739 5736 5733 5731 5730 5725 5722 5719 5716 5713 5710 5707 5704 5701 5699 5696 5692 5690 5687 5684 5683 5682 5681 5681 5681 5681 5681 5683 5685
5699 5695 5700 5714 5728 5730 5725 5721 5739 5745 5743 5740 5739 5738 5737 5738 5740 5741 5742 5741 5738 5736 5732 5729 5726 5723 5720 5716 5714 5711 5708 5705 5702 5699 5696 5692 5689 5687 5684 5681 5679 5677 5676 5675 5676 5675 5676 5677 5679
5691 5695 5700 5706 5721 5724 5720 5722 5736 5742 5741 5738 5738 5736 5735 5736 5739 5741 5741 5740 5737 5734 5731 5727 5724 5720 5717 5714 5711 5707 5705 5702 5699 5696 5693 5690 5687 5684 5681 5678 5675 5673 5671 5670 5670 5670 5671 5672 5674
5701 5698 5698 5709 5722 5720 5718 5721 5732 5739 5738 5736 5734 5734 5734 5736 5741 5741 5740 5738 5734 5731 5728 5725 5721 5718 5715 5711 5707 5703 5701 5699 5696 5694 5691 5687 5684 5681 5678 5674 5672 5669 5667 5665 5665 5665 5665 5667 5669
5703 5699 5700 5710 5721 5720 5715 5719 5731 5738 5738 5739 5737 5735 5735 5736 5737 5737 5736 5735 5733 5730 5727 5724 5720 5717 5714 5710 5706 5703 5700 5697 5694 5692 5689 5685 5682 5679 5676 5671 5668 5666 5663 5662 5661 5660 5660 5662 5664
5700 5700 5703 5707 5714 5717 5714 5713 5724 5735 5740 5742 5741 5740 5738 5738 5736 5735 5734 5733 5731 5729 5727 5725 5720 5717 5713 5709 5705 5701 5697 5695 5692 5689 5686 5684 5680 5677 5673 5670 5666 5664 5661 5659 5658 5657 5657 5657 5659
5696 5710 5710 5709 5700 5693 5702 5689 5713 5721 5730 5737 5739 5738 5738 5740 5739 5737 5735 5733 5732 5731 5728 5724 5720 5716 5712 5708 5704 5700 5695 5691 5689 5686 5684 5682 5679 5676 5672 5669 5666 5663 5660 5658 5657 5656 5656 5655 5656
5707 5715 5711 5707 5700 5691 5695 5689 5700 5716 5724 5731 5736 5739 5740 5740 5739 5738 5737 5735 5734 5731 5727 5724 5719 5715 5712 5708 5704 5700 5695 5691 5688 5685 5683 5680 5678 5675 5672 5669 5665 5662 5660 5658 5657 5656 5655 5654 5654
5717 5709 5702 5693 5687 5679 5690 5688 5692 5707 5720 5727 5736 5739 5741 5740 5740 5738 5737 5735 5732 5729 5726 5722 5718 5715 5712 5708 5704 5700 5695 5691 5687 5684 5681 5678 5676 5674 5672 5669 5665 5663 5660 5658 5657 5656 5654 5654 5654
5710 5692 5674 5673 5667 5673 5688 5688 5693 5718 5726 5729 5733 5737 5740 5739 5737 5736 5735 5733 5730 5728 5725 5722 5718 5714 5711 5708 5704 5700 5696 5692 5687 5684 5681 5678 5675 5672 5671 5668 5665 5663 5661 5659 5657 5655 5654 5654 5653
5705 5696 5675 5667 5665 5670 5683 5685 5703 5724 5730 5734 5735 5737 5738 5737 5735 5735 5735 5733 5731 5728 5725 5721 5718 5715 5711 5707 5704 5700 5696 5692 5688 5685 5681 5678 5675 5673 5671 5668 5666 5664 5662 5660 5658 5656 5654 5654 5653
5704 5693 5694 5676 5673 5667 5676 5689 5709 5726 5727 5729 5730 5732 5732 5733 5734 5734 5734 5733 5731 5729 5726 5723 5719 5715 5712 5708 5704 5700 5696 5692 5689 5686 5683 5679 5676 5674 5672 5669 5666 5664 5662 5661 5658 5656 5655 5654 5654
5715 5698 5684 5675 5665 5661 5672 5678 5684 5706 5712 5718 5721 5722 5725 5728 5730 5732 5731 5731 5730 5729 5726 5723 5719 5716 5712 5708 5704 5701 5696 5693 5689 5686 5683 5680 5677 5675 5672 5670 5667 5665 5663 5661 5659 5657 5655 5654 5654
5708 5698 5683 5670 5671 5659 5662 5671 5697 5701 5708 5709 5713 5718 5720 5723 5725 5727 5728 5728 5726 5725 5723 5720 5717 5713 5710 5707 5704 5700 5697 5693 5689 5686 5683 5681 5678 5675 5673 5670 5667 5665 5663 5661 5659 5657 5656 5655 5654
5719 5707 5691 5680 5671 5663 5659 5669 5705 5703 5705 5707 5710 5714 5717 5719 5721 5722 5723 5723 5722 5720 5719 5717 5714 5712 5709 5706 5703 5700 5696 5693 5689 5686 5683 5681 5678 5676 5673 5671 5668 5666 5663 5661 5659 5657 5656 5655 5654